Flag for Japan Weather past 2 weeks in Nagoya, Japan

Now
75 °F

Partly sunny.


Feels Like: 76 °F
Forecast: 67 / 83 °F
Wind: 13 mph from Southeast

Location: Nagoya Airport

Current Time: Sep 3, 2014 at 7:54:27 AM

Latest Report: Sep 3, 2014 at 7:30 AM


Visibility: N/A

Pressure: 29.95 "Hg

Humidity: 78%

Dew point: 68 °F

Location of NagoyaLocation

Historic Weather in Nagoya — Graph

°F

Nagoya temperature yesterday

Maximum temperature yesterday: 81 °F (at 12:00 PM)
Minimum temperature yesterday: 70 °F (at 5:00 AM)
Average temperature yesterday: 76 °F

Past Weeks' High & Low Weather Summary

 TemperatureHumidityPressure
High90 °F (Aug 19, 2:00 PM)100% (Aug 20, 4:30 AM)29.98 "Hg (Aug 20, 4:30 AM)
Low70 °F (Aug 30, 2:00 AM)59% (Aug 20, 1:30 PM)29.68 "Hg (Aug 26, 2:00 PM)
Average78 °F85%29.88 "Hg
* Reported Aug 19 6:00 AM — Sep 3 6:30 AM, Nagoya, Weather by CustomWeather, © 2014

Note: Actual official high and low records may vary slightly from our data, if they occured in-between our weather recording intervals... More about our weather records

Advertising

Nagoya weather history for previous 24 hours

 ConditionsComfort  
Time TempWeatherWind HumidityBarometerVisibility
6:30 AM
Sep 3
75 °FBroken clouds.9 mph83%29.95 "HgN/A
6:00 AM75 °FPartly sunny.7 mph83%29.95 "HgN/A
5:30 AM73 °FBroken clouds.6 mph89%29.92 "HgN/A
5:00 AM75 °FPassing clouds.8 mph83%29.92 "HgN/A
4:30 AM73 °FPassing clouds.8 mph89%29.92 "HgN/A
4:00 AM73 °FPassing clouds.8 mph89%29.92 "HgN/A
3:30 AM75 °FPassing clouds.8 mph83%29.92 "HgN/A
3:00 AM73 °FPassing clouds.5 mph89%29.92 "HgN/A
2:30 AM73 °FPassing clouds.5 mph94%29.92 "HgN/A
2:00 AM73 °FPassing clouds.6 mph94%29.92 "HgN/A
1:30 AM75 °FPassing clouds.6 mph89%29.92 "HgN/A
1:00 AM75 °FPassing clouds.9 mph89%29.92 "HgN/A
12:30 AM75 °FPassing clouds.8 mph83%29.95 "HgN/A
12:00 AM75 °FPassing clouds.7 mph83%29.95 "HgN/A
11:30 PM
Sep 2
73 °FPassing clouds.7 mph94%29.95 "HgN/A
11:00 PM75 °FPassing clouds.7 mph89%29.95 "HgN/A
10:30 PM75 °FPassing clouds.9 mph89%29.95 "HgN/A
10:00 PM75 °FPassing clouds.10 mph89%29.95 "HgN/A
9:30 PM75 °FPassing clouds.10 mph89%29.95 "HgN/A
9:00 PM75 °FPassing clouds.9 mph89%29.95 "HgN/A
8:30 PM75 °FPassing clouds.13 mph83%29.95 "HgN/A
8:00 PM75 °FPassing clouds.13 mph83%29.95 "HgN/A
7:30 PM75 °FPassing clouds.13 mph89%29.95 "HgN/A
7:00 PM75 °FPassing clouds.14 mph89%29.92 "HgN/A
6:30 PM77 °FPassing clouds.15 mph83%29.92 "HgN/A
6:00 PM77 °FPartly sunny.16 mph83%29.89 "HgN/A
5:30 PM77 °FPartly sunny.16 mph83%29.89 "HgN/A
5:00 PM79 °FPartly sunny.17 mph79%29.89 "HgN/A
4:30 PM79 °FPartly sunny.16 mph79%29.89 "HgN/A
4:00 PM79 °FPartly sunny.14 mph79%29.89 "HgN/A
3:30 PM81 °FPartly sunny.14 mph74%29.86 "HgN/A
3:00 PM81 °FPartly sunny.14 mph74%29.86 "HgN/A
2:30 PM81 °FPartly sunny.13 mph74%29.86 "HgN/A
2:00 PM81 °FPartly sunny.8 mph70%29.86 "HgN/A
1:30 PM81 °FPartly sunny.7 mph70%29.89 "HgN/A
1:00 PM79 °FPartly sunny.7 mph74%29.89 "HgN/A
12:30 PM81 °FPartly sunny.5 mph70%29.89 "HgN/A
12:00 PM81 °FPartly sunny.6 mph74%29.89 "HgN/A
11:30 AM79 °FScattered clouds.6 mph79%29.92 "HgN/A
11:00 AM79 °FPartly sunny.7 mph79%29.92 "HgN/A
10:30 AM79 °FPartly sunny.6 mph74%29.92 "HgN/A
10:00 AM77 °FPartly sunny.5 mph79%29.92 "HgN/A
9:30 AM77 °FScattered clouds.6 mph79%29.92 "HgN/A
9:00 AM77 °FPassing clouds.7 mph83%29.92 "HgN/A
8:30 AM75 °FPassing clouds.8 mph89%29.92 "HgN/A
8:00 AM75 °FPassing clouds.7 mph89%29.92 "Hg5 mi
7:30 AM73 °FPassing clouds.6 mph94%29.92 "Hg5 mi
7:00 AM73 °FFog.6 mph94%29.92 "Hg4 mi
Weather by CustomWeather, © 2014

See weather overviewHow to use our weather pages